Change the Weather History Date:

Tuesday, February 19, 2013

  Actual Average Record
Temperature  
Mean Temperature 28 °F -  
Max Temperature 43 °F 36 °F 57 °F (1997)
Min Temperature 13 °F 19 °F 0 °F (2014)
Degree Days  
Heating Degree Days 37    
Moisture  
Dew Point 34 °F    
Average Humidity 93    
Maximum Humidity 100    
Minimum Humidity 53    
Precipitation  
Precipitation 0.02 in - - ()
Sea Level Pressure  
Sea Level Pressure 29.73 in    
Wind  
Wind Speed 3 mph (SSW)    
Max Wind Speed 21 mph    
Max Gust Speed 29 mph    
Visibility 4 miles    
Events Fog , Rain    
Averages and records for this station are not official NWS values.
T = Trace of Precipitation, MM = Missing Value Source: NWS Daily Summary

Daily Weather History Graph

Daily Weather History Graph

Search for Another Location

Airport or City:

Trip Planner

Search our weather history database for the weather conditions in past years. The results will help you decide how hot, cold, wet, or windy it might be!

Date:

Astronomy

Feb. 19, 2013 Rise Set
Actual Time 6:40 AM EST 5:28 PM EST
Civil Twilight 6:11 AM EST 5:56 PM EST
Nautical Twilight 5:39 AM EST 6:29 PM EST
Astronomical Twilight 5:06 AM EST 7:01 PM EST
Moon 11:54 AM EST (2/19) 2:13 AM EST (2/19)
Length of Visible Light 11h 44m
Length of Day
10h 47m
Waxing Gibbous, 67% of the Moon is Illuminated
Feb 19
Waxing Gibbous
Feb 25
Full
Mar 4
Last Quarter
Mar 11
New
Mar 19
First Quarter

Hourly Weather History & Observations

Time (EST) Temp. Windchill Dew Point Humidity Pressure Visibility Wind Dir Wind Speed Gust Speed Precip Events Conditions
12:55 AM 14.9 °F - 9.3 °F 79% 30.19 in 10.0 mi Calm Calm - N/A   Clear
1:55 AM 13.6 °F - 8.2 °F 79% 30.18 in 10.0 mi Calm Calm - N/A   Scattered Clouds
2:55 AM 18.9 °F - 12.2 °F 75% 30.14 in 10.0 mi Calm Calm - N/A   Overcast
3:55 AM 18.9 °F - 12.0 °F 75% 30.14 in 10.0 mi Calm Calm - N/A   Mostly Cloudy
4:55 AM 17.2 °F 11.9 °F 12.2 °F 81% 30.13 in 10.0 mi NNE 3.5 mph - N/A   Partly Cloudy
5:55 AM 14.9 °F 9.2 °F 10.0 °F 81% 30.11 in 10.0 mi NE 3.5 mph - N/A   Partly Cloudy
6:55 AM 15.3 °F 9.6 °F 10.8 °F 82% 30.09 in 10.0 mi NNE 3.5 mph - N/A   Clear
7:55 AM 17.1 °F 11.7 °F 11.1 °F 77% 30.09 in 10.0 mi ENE 3.5 mph - N/A   Clear
8:55 AM 24.3 °F - 12.9 °F 62% 30.08 in 10.0 mi Calm Calm - N/A   Clear
9:55 AM 30.0 °F - 14.5 °F 53% 30.05 in 10.0 mi Calm Calm - N/A   Clear
10:55 AM 36.0 °F 33.3 °F 23.9 °F 62% 30.02 in 10.0 mi SSW 3.5 mph - N/A   Partly Cloudy
11:55 AM 41.0 °F 34.7 °F 27.9 °F 60% 29.97 in 10.0 mi South 10.4 mph - N/A   Partly Cloudy
12:55 PM 42.8 °F 37.5 °F 28.9 °F 58% 29.92 in 10.0 mi South 9.2 mph - N/A   Scattered Clouds
1:55 PM 43.7 °F 36.6 °F 29.8 °F 58% 29.87 in 10.0 mi South 15.0 mph - N/A   Mostly Cloudy
2:55 PM 42.8 °F 35.4 °F 32.0 °F 66% 29.84 in 10.0 mi South 15.0 mph - N/A   Overcast
3:12 PM 42.8 °F 34.3 °F 33.8 °F 70% 29.82 in 10.0 mi South 19.6 mph 28.8 mph N/A Rain Light Rain
3:48 PM 42.8 °F 34.0 °F 35.6 °F 76% 29.81 in 10.0 mi South 20.7 mph - N/A   Mostly Cloudy
3:55 PM 41.7 °F 32.9 °F 36.5 °F 82% 29.81 in 10.0 mi South 19.6 mph - 0.00 in   Mostly Cloudy
4:18 PM 41.0 °F 33.5 °F 37.4 °F 87% 29.80 in 10.0 mi South 13.8 mph 23.0 mph N/A Rain Light Rain
4:39 PM 41.0 °F 34.3 °F 37.4 °F 87% 29.79 in 10.0 mi South 11.5 mph - N/A Rain Light Rain
4:40 PM 39.2 °F 32.0 °F 37.4 °F 93% 29.78 in 10.0 mi South 11.5 mph - N/A Rain Light Rain
4:52 PM 39.2 °F 33.0 °F 37.4 °F 93% 29.78 in 10.0 mi SSE 9.2 mph - N/A   Overcast
4:55 PM 39.7 °F 33.7 °F 38.1 °F 94% 29.77 in 10.0 mi SSE 9.2 mph - 0.00 in   Overcast
4:56 PM 39.2 °F 32.5 °F 37.4 °F 93% 29.77 in 10.0 mi SSE 10.4 mph - N/A   Light Drizzle
5:20 PM 39.2 °F 37.0 °F 39.2 °F 100% 29.75 in 10.0 mi SSE 3.5 mph - N/A Rain Light Rain
5:25 PM 39.2 °F 37.0 °F 39.2 °F 100% 29.75 in 10.0 mi South 3.5 mph - N/A Rain Light Rain
5:26 PM 39.2 °F 37.0 °F 39.2 °F 100% 29.75 in 10.0 mi South 3.5 mph - N/A Rain Light Rain
5:30 PM 39.2 °F 37.0 °F 39.2 °F 100% 29.75 in 10.0 mi South 3.5 mph - N/A Rain Light Rain
5:31 PM 39.2 °F - 39.2 °F 100% 29.75 in 10.0 mi Calm Calm - N/A Rain Light Rain
5:34 PM 39.2 °F - 39.2 °F 100% 29.75 in 10.0 mi Calm Calm - N/A Rain Light Rain
5:35 PM 39.2 °F - 39.2 °F 100% 29.75 in 9.0 mi Calm Calm - N/A Rain Light Rain
5:37 PM 39.2 °F - 39.2 °F 100% 29.74 in 8.0 mi Calm Calm - N/A   Overcast
5:40 PM 39.2 °F - 39.2 °F 100% 29.74 in 8.0 mi Calm Calm - N/A   Overcast
5:42 PM 39.2 °F - 39.2 °F 100% 29.74 in 7.0 mi Calm Calm - N/A Rain Light Rain
5:50 PM 39.2 °F 35.9 °F 39.2 °F 100% 29.74 in 8.0 mi SSE 4.6 mph - N/A   Overcast
5:51 PM 39.2 °F 35.9 °F 39.2 °F 100% 29.73 in 9.0 mi SSE 4.6 mph - N/A Rain Light Rain
5:52 PM 39.2 °F 37.0 °F 39.2 °F 100% 29.73 in 9.0 mi SSE 3.5 mph - N/A   Overcast
5:53 PM 39.2 °F 37.0 °F 39.2 °F 100% 29.73 in 9.0 mi SSE 3.5 mph - N/A Rain Light Rain
5:55 PM 38.8 °F - 38.3 °F 98% 29.73 in 8.0 mi Calm Calm - 0.01 in Rain Light Rain
5:58 PM 39.2 °F - 39.2 °F 100% 29.73 in 7.0 mi Calm Calm - N/A Rain Light Rain
6:04 PM 39.2 °F - 37.4 °F 93% 29.73 in 5.0 mi Calm Calm - N/A Rain Light Rain
6:11 PM 39.2 °F - 39.2 °F 100% 29.73 in 4.0 mi Calm Calm - N/A Rain Light Rain
7:18 PM 39.2 °F - 37.4 °F 93% 29.69 in 2.0 mi Calm Calm - N/A   Overcast
7:22 PM 39.2 °F - 37.4 °F 93% 29.69 in 1.8 mi Calm Calm - N/A   Overcast
7:24 PM 39.2 °F - 37.4 °F 93% 29.69 in 1.5 mi Calm Calm - N/A   Overcast
7:25 PM 39.2 °F - 37.4 °F 93% 29.69 in 1.8 mi Calm Calm - N/A   Overcast
7:27 PM 39.2 °F - 37.4 °F 93% 29.68 in 2.0 mi Calm Calm - N/A   Overcast
7:29 PM 39.2 °F - 37.4 °F 93% 29.68 in 2.5 mi Calm Calm - N/A   Overcast
7:33 PM 39.2 °F - 37.4 °F 93% 29.68 in 3.0 mi Calm Calm - N/A   Overcast
7:34 PM 39.2 °F - 37.4 °F 93% 29.68 in 2.5 mi Calm Calm - N/A   Overcast
7:35 PM 39.2 °F - 37.4 °F 93% 29.68 in 2.0 mi Calm Calm - N/A   Overcast
7:38 PM 37.4 °F - 37.4 °F 100% 29.68 in 1.8 mi Calm Calm - N/A   Overcast
7:40 PM 37.4 °F - 37.4 °F 100% 29.68 in 1.5 mi Calm Calm - N/A   Overcast
7:45 PM 37.4 °F - 37.4 °F 100% 29.68 in 1.8 mi Calm Calm - N/A   Overcast
7:48 PM 37.4 °F 33.8 °F 37.4 °F 100% 29.67 in 2.0 mi SW 4.6 mph - N/A   Overcast
7:50 PM 37.4 °F 34.9 °F 37.4 °F 100% 29.67 in 2.0 mi SW 3.5 mph - N/A   Overcast
7:51 PM 37.4 °F - 37.4 °F 100% 29.67 in 2.5 mi Calm Calm - N/A   Overcast
7:55 PM 38.5 °F - 38.1 °F 99% 29.67 in 2.5 mi Calm Calm - 0.01 in   Overcast
7:59 PM 39.2 °F - 37.4 °F 93% 29.67 in 2.0 mi Calm Calm - N/A   Overcast
8:00 PM 37.4 °F - 37.4 °F 100% 29.67 in 1.5 mi Calm Calm - N/A   Overcast
8:01 PM 37.4 °F - 37.4 °F 100% 29.67 in 1.2 mi Calm Calm - N/A   Overcast
8:03 PM 37.4 °F - 37.4 °F 100% 29.67 in 1.0 mi Calm Calm - N/A   Mist
8:05 PM 37.4 °F - 37.4 °F 100% 29.68 in 0.8 mi Calm Calm - N/A   Mist
8:07 PM 37.4 °F 34.9 °F 37.4 °F 100% 29.68 in 0.8 mi SSW 3.5 mph - N/A   Mist
8:08 PM 37.4 °F 34.9 °F 37.4 °F 100% 29.68 in 0.8 mi SSW 3.5 mph - N/A   Mist
8:09 PM 37.4 °F 34.9 °F 37.4 °F 100% 29.68 in 0.5 mi SSW 3.5 mph - N/A Fog Fog
8:14 PM 37.4 °F 34.9 °F 37.4 °F 100% 29.67 in 0.5 mi South 3.5 mph - N/A Fog Fog
8:18 PM 37.4 °F - 37.4 °F 100% 29.66 in 0.2 mi Calm Calm - N/A Fog Fog
8:20 PM 37.4 °F - 37.4 °F 100% 29.66 in 0.2 mi Calm Calm - N/A Fog Fog
8:21 PM 37.4 °F - 37.4 °F 100% 29.66 in 0.2 mi Calm Calm - N/A Fog Fog
8:35 PM 35.6 °F - 35.6 °F 100% 29.65 in 0.2 mi Calm Calm - N/A Fog Fog
8:36 PM 35.6 °F - 35.6 °F 100% 29.65 in 0.2 mi Calm Calm - N/A Fog Fog
8:37 PM 35.6 °F - 35.6 °F 100% 29.65 in 0.2 mi Calm Calm - N/A Fog Fog
8:38 PM 35.6 °F - 35.6 °F 100% 29.65 in 0.2 mi Calm Calm - N/A Fog Fog
8:55 PM 36.5 °F - 36.0 °F 98% 29.63 in 0.2 mi Calm Calm - 0.00 in Fog Fog
9:00 PM 35.6 °F - 35.6 °F 100% 29.64 in 0.2 mi Calm Calm - N/A Fog Fog
9:02 PM 35.6 °F - 35.6 °F 100% 29.64 in 0.2 mi Calm Calm - N/A Fog Fog
9:08 PM 35.6 °F - 35.6 °F 100% 29.63 in 0.5 mi Calm Calm - N/A Fog Fog
9:11 PM 35.6 °F - 35.6 °F 100% 29.63 in 0.2 mi Calm Calm - N/A Fog Fog
9:12 PM 35.6 °F - 35.6 °F 100% 29.63 in 0.2 mi Calm Calm - N/A Fog Fog
9:23 PM 35.6 °F - 35.6 °F 100% 29.63 in 0.2 mi Calm Calm - N/A Fog Fog
9:28 PM 35.6 °F 32.8 °F 35.6 °F 100% 29.65 in 0.2 mi SW 3.5 mph - N/A Fog Fog
9:32 PM 35.6 °F - 35.6 °F 100% 29.65 in 0.2 mi Calm Calm - N/A Fog Fog
9:46 PM 37.4 °F - 35.6 °F 93% 29.64 in 0.2 mi Calm Calm - N/A Fog Fog
9:50 PM 37.4 °F 34.9 °F 37.4 °F 100% 29.64 in 0.5 mi SSW 3.5 mph - N/A Fog Fog
9:55 PM 37.0 °F 34.5 °F 36.5 °F 98% 29.64 in 0.5 mi SSW 3.5 mph - N/A Fog Fog
9:57 PM 37.4 °F 34.9 °F 35.6 °F 93% 29.64 in 0.2 mi SW 3.5 mph - N/A Fog Fog
10:05 PM 37.4 °F 34.9 °F 35.6 °F 93% 29.63 in 0.2 mi WSW 3.5 mph - N/A Fog Fog
10:10 PM 37.4 °F - 35.6 °F 93% 29.62 in 0.2 mi Calm Calm - N/A Fog Fog
10:11 PM 35.6 °F 32.8 °F 35.6 °F 100% 29.62 in 0.2 mi West 3.5 mph - N/A Fog Fog
10:21 PM 37.4 °F - 35.6 °F 93% 29.62 in 0.2 mi Calm Calm - N/A Fog Fog
10:30 PM 37.4 °F 34.9 °F 37.4 °F 100% 29.62 in 0.2 mi WSW 3.5 mph - N/A Fog Fog
10:55 PM 36.5 °F 32.7 °F 36.0 °F 98% 29.61 in 0.2 mi WSW 4.6 mph - N/A Fog Fog
10:59 PM 37.4 °F 34.9 °F 35.6 °F 93% 29.61 in 0.2 mi WSW 3.5 mph - N/A Fog Fog
11:00 PM 35.6 °F 32.8 °F 35.6 °F 100% 29.60 in 0.2 mi West 3.5 mph - N/A Fog Fog
11:01 PM 35.6 °F 31.7 °F 35.6 °F 100% 29.60 in 0.2 mi West 4.6 mph - N/A Fog Fog
11:02 PM 35.6 °F 32.8 °F 35.6 °F 100% 29.61 in 0.2 mi West 3.5 mph - N/A Fog Fog
11:04 PM 35.6 °F - 35.6 °F 100% 29.61 in 0.5 mi Calm Calm - N/A Fog Fog
11:10 PM 35.6 °F - 35.6 °F 100% 29.60 in 0.2 mi Calm Calm - N/A Fog Fog
11:12 PM 37.4 °F - 35.6 °F 93% 29.60 in 0.2 mi Calm Calm - N/A Fog Fog
11:13 PM 37.4 °F - 35.6 °F 93% 29.60 in 0.2 mi Calm Calm - N/A Fog Fog
11:15 PM 37.4 °F - 35.6 °F 93% 29.60 in 0.2 mi Calm Calm - N/A Fog Fog
11:18 PM 35.6 °F - 35.6 °F 100% 29.60 in 0.2 mi Calm Calm - N/A Fog Fog
11:23 PM 35.6 °F - 35.6 °F 100% 29.59 in 0.5 mi Calm Calm - N/A Fog Fog
11:34 PM 35.6 °F - 35.6 °F 100% 29.59 in 0.5 mi Calm Calm - N/A Fog Fog
11:49 PM 35.6 °F 31.7 °F 33.8 °F 93% 29.60 in 0.8 mi SW 4.6 mph - N/A   Overcast
11:52 PM 35.6 °F 31.7 °F 33.8 °F 93% 29.60 in 0.8 mi SW 4.6 mph - N/A   Overcast
11:54 PM 35.6 °F 32.8 °F 35.6 °F 100% 29.60 in 0.8 mi SW 3.5 mph - N/A   Overcast
11:55 PM 35.2 °F 32.4 °F 34.9 °F 99% 29.60 in 0.8 mi SW 3.5 mph - N/A   Overcast
11:56 PM 35.6 °F 32.8 °F 35.6 °F 100% 29.60 in 1.0 mi SSW 3.5 mph - N/A   Overcast